Regional Weather Roundup
Issued by NWS Sioux Falls, SD

Home | Current Version | Previous Version | Graphics & Text | Print | Product List | Glossary On
Versions: 1 2 3 4 5 6 7 8 9 10 11 12 13 14 15 16 17 18 19 20 21 22 23 24 25 26 27 28 29 30 31 32 33 34 35 36 37 38 39 40 41 42 43 44 45 46 47 48 49 50
000
ASUS43 KFSD 231002
RWRFSD

WEATHER ROUNDUP FOR SE SOUTH DAKOTA/SW MINNESOTA/NW IOWA
NATIONAL WEATHER SERVICE SIOUX FALLS SD
500 AM CDT SAT SEP 23 2017

NOTE: "FAIR" INDICATES FEW OR NO CLOUDS BELOW 12,000 FEET WITH NO
SIGNIFICANT WEATHER AND OR OBSTRUCTIONS TO VISIBILITY.


SDZ038>040-050-052>070-231100-
SOUTHEAST SOUTH DAKOTA

CITY           SKY/WX    TMP DP  RH WIND       PRES   REMARKS
BROOKINGS      CLOUDY    59  57  93 NW15G22   29.94R
CHAMBERLAIN    LGT RAIN  53  53 100 N5        29.98R
HURON          CLOUDY    54  52  93 N12       29.95R
MADISON        CLOUDY    57  57 100 NW15      29.94R
MITCHELL       CLOUDY    55  52  89 N10       29.95R
SIOUX FALLS    PTCLDY    61  60  97 NW16G23   29.90R
WINNER         CLOUDY    51  49  92 N9        29.97R
YANKTON        CLOUDY    58  54  86 NW16G24   29.93R
$$

MNZ071-072-080-081-089-090-097-098-231100-
SOUTHWEST MINNESOTA

CITY           SKY/WX    TMP DP  RH WIND       PRES   REMARKS
FAIRMONT       CLEAR     72  67  84 S10       29.90S
JACKSON        CLEAR     70  64  83 S7        29.90S
MARSHALL       PTCLDY    63  61  93 NW5       29.89R
MONTEVIDEO     MOCLDY    63  63 100 N6        29.89R
PIPESTONE      PTCLDY    64  63  94 CALM      29.88S
REDWOOD FALLS  PTCLDY    71  66  84 CALM      29.86R
TRACY          PTCLDY    65  64  96 NW3       29.89R
WORTHINGTON    CLEAR     72  67  84 S13       29.89S
$$

IAZ001>003-012>014-020>022-031-032-NEZ013-014-SDZ071-231100-
NORTHWEST IOWA

CITY           SKY/WX    TMP DP  RH WIND       PRES   REMARKS
CHEROKEE       PTCLDY    70  68  95 S6        29.90S
DENISON        CLEAR     72  68  88 S8G15     29.94S
ESTHERVILLE    CLEAR     68  68 100 S10       29.90S
LE MARS        PTCLDY    73  68  83 S8        29.88S
ORANGE CITY    PTCLDY    72  70  94 S7        29.89S
SHELDON        PTCLDY    70  68  94 S8        29.87S
SIOUX CITY     CLEAR     71  69  93 SE8       29.88S
SPENCER        CLEAR     69  67  93 S8        29.91S
STORM LAKE     PTCLDY    70  66  88 S8        29.93S
$$

ABBREVIATIONS USED IN REMARKS
   TC - TEMPERATURE IN CELSIUS
  WCI - WIND CHILL INDEX
   HX - HEAT INDEX
  VSB - VISIBILITY




USA.gov is the U.S. government's official web portal to all federal, state and local government web resources and services.